Location: London
(42.9830°N, 81.2500°W)
Time: 13:05:46
(UTC-05:00)

Amateur Radio Satellites - All Passes

Search period start: 01 March 2017 12:35
Search period end: 02 March 2017 12:35
Location: London, 42.9830°N, 81.2500°W

Satellite Date Start Highest point End Downlink Frequencies (MHz)
Time Altitude Azimuth
POLYITAN 1 01 Mar 12:36:22 12:38:42 14° 269° (W) 12:41:02 437.675
BUGSAT 1 01 Mar 12:37:43 12:41:35 41° 261° (W) 12:45:32 437.445
QB50P2 01 Mar 12:40:13 12:41:57 12° 270° (W) 12:43:43 145.880/145.840
Gurwin Techsat 1B 01 Mar 12:41:52 12:46:38 34° 67° (ENE) 12:51:24 435.225
AO-7 01 Mar 12:43:35 12:48:12 16° 45° (NE) 12:52:50 .
Tancredo 1 01 Mar 12:46:04 12:49:19 88° 41° (NE) 12:52:32 437.200
ESTCUBE 1 01 Mar 12:48:42 12:52:41 32° 291° (WNW) 12:56:39 437.505/2401.250
VELOX 1 01 Mar 12:53:42 12:58:08 82° 286° (WNW) 13:02:34 145.980
Oscar 19 01 Mar 12:59:12 13:04:21 85° 73° (ENE) 13:09:31 437.125/150
AO-85 01 Mar 13:08:08 13:11:26 26° 245° (WSW) 13:14:48 145.980
BEESAT 3 01 Mar 13:10:01 13:13:21 24° 45° (NE) 13:16:40 437.485
50 SAT 01 Mar 13:10:33 13:14:00 62° 284° (WNW) 13:17:25 437.505
YUBILEINY 01 Mar 13:25:17 13:25:57 10° 310° (NW) 13:26:37 435.215
ITAMSAT 1 01 Mar 13:44:08 13:48:18 25° 64° (ENE) 13:52:29 435.822/435.867
BEESAT 2 01 Mar 13:58:20 14:01:58 30° 48° (NE) 14:05:35 435.950
SPROUT 01 Mar 14:04:22 14:07:22 19° 295° (WNW) 14:10:19 437.525
DX 1 01 Mar 14:06:37 14:10:29 32° 292° (WNW) 14:14:21 434.975-435.025
ISS 01 Mar 14:09:06 14:11:17 17° 227° (SW) 14:13:29 437.550
UKube-1 01 Mar 14:09:11 14:13:14 40° 290° (WNW) 14:17:16 .
Gurwin Techsat 1B 01 Mar 14:21:50 14:26:32 32° 264° (W) 14:31:18 435.225
Tancredo 1 01 Mar 14:24:01 14:25:06 11° 230° (SW) 14:26:11 437.200
ITUPSAT 1 01 Mar 14:24:56 14:28:34 21° 93° (E) 14:32:10 437.325
BEESAT 01 Mar 14:28:13 14:32:02 23° 94° (E) 14:35:48 436.000
AO-7 01 Mar 14:31:11 14:39:24 64° 66° (ENE) 14:47:37 .
Oscar 19 01 Mar 14:42:31 14:44:18 12° 272° (W) 14:46:05 437.125/150
BEESAT 3 01 Mar 14:47:20 14:51:03 36° 243° (WSW) 14:54:44 437.485
NO-84 01 Mar 14:54:15 14:56:04 15° 125° (SE) 14:57:58 435.350 FM
ITAMSAT 1 01 Mar 15:22:31 15:27:29 45° 261° (W) 15:32:31 435.822/435.867
PCSat 01 Mar 15:35:22 15:40:45 76° 118° (ESE) 15:46:12 145.827
BEESAT 2 01 Mar 15:36:13 15:39:40 27° 246° (WSW) 15:43:08 435.950
RS-15 01 Mar 15:40:14 15:50:13 33° 103° (ESE) 16:00:29 29.354- 29.394
KKS-1 01 Mar 15:43:10 15:44:57 12° 90° (E) 15:46:45 437.445
MOZHAYETS 4 01 Mar 15:44:26 15:48:56 52° 100° (E) 15:53:23
ITUPSAT 1 01 Mar 16:02:02 16:06:35 43° 290° (WNW) 16:11:05 437.325
BEESAT 01 Mar 16:05:29 16:09:55 39° 291° (WNW) 16:14:20 436.000
AO-7 01 Mar 16:25:34 16:32:38 30° 265° (W) 16:39:45 .
LilacSat-2 01 Mar 16:27:52 16:29:00 11° 63° (ENE) 16:30:09 437.200
NO-84 01 Mar 16:30:10 16:33:16 53° 325° (NW) 16:36:41 435.350 FM
DOVE 4 01 Mar 16:43:51 16:46:52 20° 65° (ENE) 16:49:57 437.250
CUBESAT XI-V 01 Mar 16:56:30 17:00:57 48° 99° (E) 17:05:23 437.345
KAITUO 1B 01 Mar 17:03:25 17:06:20 21° 68° (ENE) 17:09:16 145.475/437.950
CUTE-I 01 Mar 17:04:49 17:09:34 35° 67° (ENE) 17:14:24 437.470
XW-2F 01 Mar 17:15:33 17:19:02 34° 71° (ENE) 17:22:33 145.980 - 146.000
KKS-1 01 Mar 17:17:30 17:21:58 67° 286° (WNW) 17:26:24 437.445
PCSat 01 Mar 17:20:45 17:24:45 21° 318° (NW) 17:28:47 145.827
MOZHAYETS 4 01 Mar 17:22:39 17:25:40 18° 297° (WNW) 17:28:42
XW-2D 01 Mar 17:22:59 17:26:40 45° 73° (ENE) 17:30:22 145.860 - 145.880
XW-2B 01 Mar 17:28:05 17:31:49 50° 74° (ENE) 17:35:35 145.730 - 145.750
NUDT-PHONESAT 01 Mar 17:31:38 17:35:13 44° 73° (ENE) 17:38:51 437.300
XW-2C 01 Mar 17:36:51 17:40:40 66° 75° (ENE) 17:44:31 145.795 - 145.815
STARS 01 Mar 17:38:02 17:42:30 89° 277° (W) 17:46:57 437.465
HO-68 01 Mar 17:49:27 17:55:22 29° 59° (ENE) 18:01:17 435.675
RS-15 01 Mar 17:49:33 18:01:35 77° 307° (NW) 18:14:04 29.354- 29.394
LilacSat-2 01 Mar 17:58:54 18:02:45 63° 259° (W) 18:06:38 437.200
M-CUBED/EXP-1 PRIME 01 Mar 18:03:47 18:07:42 63° 107° (ESE) 18:11:54 437.505
NO-84 01 Mar 18:09:29 18:11:39 16° 346° (NNW) 18:13:55 435.350 FM
DOVE 4 01 Mar 18:20:30 18:24:20 36° 263° (W) 18:28:15 437.250
CUTE 1.7 + AOD 2 01 Mar 18:32:07 18:35:55 32° 70° (ENE) 18:39:43 437.475
UWE-3 01 Mar 18:34:28 18:36:02 12° 60° (ENE) 18:37:35 435.000/436.395/437.385
CUBESAT XI-V 01 Mar 18:34:46 18:37:58 19° 296° (WNW) 18:41:10 437.345
KAITUO 1B 01 Mar 18:36:55 18:40:13 28° 264° (W) 18:43:32 145.475/437.950
CUTE-I 01 Mar 18:44:51 18:49:36 32° 264° (W) 18:54:24 437.470
XW-2F 01 Mar 18:50:42 18:53:18 17° 267° (W) 18:55:55 145.980 - 146.000
AAUSAT CUBESAT 2 01 Mar 18:55:44 18:58:43 19° 66° (ENE) 19:01:42 437.432
XW-2D 01 Mar 18:59:08 19:01:05 13° 269° (W) 19:03:03 145.860 - 145.880
XW-2A 01 Mar 19:01:28 19:04:52 74° 258° (WSW) 19:08:19 145.665 - 145.685
XW-2B 01 Mar 19:04:44 19:06:19 12° 270° (W) 19:07:54 145.730 - 145.750
NUDT-PHONESAT 01 Mar 19:07:36 19:09:24 13° 269° (W) 19:11:13 437.300
STARS 01 Mar 19:17:37 19:18:07 10° 301° (WNW) 19:18:37 437.465
STRAND 1 01 Mar 19:18:01 19:22:45 36° 97° (E) 19:27:27 437.568
SEEDS 01 Mar 19:19:37 19:23:49 71° 75° (ENE) 19:28:01 437.485
AO-73 01 Mar 19:27:47 19:31:13 22° 66° (ENE) 19:34:42 145.935
Oscar 11 01 Mar 19:28:46 19:31:48 19° 65° (ENE) 19:34:51 .
YUBILEINY 01 Mar 19:31:33 19:37:17 19° 59° (ENE) 19:42:58 435.215
HO-68 01 Mar 19:35:33 19:42:38 61° 258° (WSW) 19:49:44 435.675
M-CUBED/EXP-1 PRIME 01 Mar 19:39:56 19:41:47 13° 301° (WNW) 19:43:41 437.505
CUBEBUG 2 01 Mar 19:40:14 19:44:44 80° 74° (ENE) 19:49:24 437.445
NO-84 01 Mar 19:48:36 19:50:33 14° 8° (N) 19:52:36 435.350 FM
SO-50 01 Mar 20:02:49 20:04:29 12° 108° (ESE) 20:06:08 436.795
RS-15 01 Mar 20:05:52 20:16:31 33° 335° (NNW) 20:27:21 29.354- 29.394
UWE-3 01 Mar 20:07:13 20:11:44 85° 256° (WSW) 20:16:24 435.000/436.395/437.385
CUTE 1.7 + AOD 2 01 Mar 20:08:22 20:11:46 23° 266° (W) 20:15:12 437.475
ZACube-1 01 Mar 20:17:03 20:21:32 74° 76° (ENE) 20:26:08 437.345
AAUSAT CUBESAT 2 01 Mar 20:30:05 20:33:56 37° 262° (W) 20:37:48 437.432
PRISM 01 Mar 20:47:11 20:48:07 11° 90° (E) 20:49:03 437.425
STRAND 1 01 Mar 20:57:23 21:01:48 30° 294° (WNW) 21:06:13 437.568
SEEDS 01 Mar 20:59:28 20:59:58 10° 271° (W) 21:00:28 437.485
AO-73 01 Mar 21:02:57 21:07:11 40° 263° (W) 21:11:30 145.935
Oscar 11 01 Mar 21:03:28 21:07:37 43° 262° (W) 21:11:47 .
DELFI C3 01 Mar 21:18:18 21:22:15 89° 76° (ENE) 21:26:13 145.870
CUBEBUG 2 01 Mar 21:21:09 21:21:57 10° 273° (W) 21:22:47 437.445
NO-84 01 Mar 21:25:45 21:29:12 30° 28° (NNE) 21:32:52 435.350 FM
YUBILEINY 01 Mar 21:26:45 21:35:33 84° 83° (E) 21:44:14 435.215
SO-50 01 Mar 21:39:36 21:44:18 84° 306° (NW) 21:48:56 436.795
FO-29 01 Mar 21:48:46 21:53:52 20° 86° (E) 21:58:36 435.910
ZACube-1 01 Mar 21:56:58 21:58:21 11° 272° (W) 21:59:45 437.345
LO-87 01 Mar 22:05:16 22:08:29 34° 72° (ENE) 22:11:45 145.935 - 145.965
O/OREOS (USA 219) 01 Mar 22:11:24 22:15:52 85° 109° (ESE) 22:20:25 437.305
ESTCUBE 1 01 Mar 22:12:29 22:16:15 27° 67° (ENE) 22:20:01 437.505/2401.250
VELOX 1 01 Mar 22:19:03 22:20:04 11° 59° (ENE) 22:21:05 145.980
PRISM 01 Mar 22:19:45 22:23:49 64° 286° (WNW) 22:27:51 437.425
RS-15 01 Mar 22:24:13 22:34:15 27° 10° (N) 22:44:09 29.354- 29.394
TIGRISAT 01 Mar 22:24:36 22:29:15 56° 100° (E) 22:33:46 435.000
UNISAT 6 01 Mar 22:25:52 22:30:32 62° 100° (E) 22:35:06 437.425
PCSat 01 Mar 22:40:16 22:43:26 15° 37° (NE) 22:46:35 145.827
AIST 2D 01 Mar 22:49:18 22:50:58 13° 91° (E) 22:52:38 435.315
NO-84 01 Mar 23:03:07 23:07:04 54° 225° (SW) 23:11:15 435.350 FM
SPROUT 01 Mar 23:21:43 23:25:37 36° 70° (ENE) 23:29:34 437.525
SO-50 01 Mar 23:22:41 23:25:27 15° 324° (NW) 23:28:11 436.795
YUBILEINY 01 Mar 23:25:19 23:31:10 20° 282° (WNW) 23:37:01 435.215
DX 1 01 Mar 23:27:10 23:30:39 24° 66° (ENE) 23:34:08 434.975-435.025
UKube-1 01 Mar 23:29:31 23:32:31 19° 64° (ENE) 23:35:33 .
FO-29 01 Mar 23:32:15 23:39:49 80° 287° (WNW) 23:46:32 435.910
LO-87 01 Mar 23:40:07 23:42:05 14° 268° (W) 23:44:04 145.935 - 145.965
DUCHIFAT 1 01 Mar 23:42:12 23:45:56 29° 96° (E) 23:49:38 145.980
50 SAT 01 Mar 23:45:01 23:48:24 52° 74° (ENE) 23:51:49 437.505
ESTCUBE 1 01 Mar 23:48:56 23:52:56 31° 264° (W) 23:56:57 437.505/2401.250
VELOX 1 01 Mar 23:51:27 23:55:50 84° 254° (WSW) 00:00:15 145.980
O/OREOS (USA 219) 01 Mar 23:53:59 23:55:57 13° 311° (NW) 23:57:54 437.305
EO-79 01 Mar 23:58:43 00:02:56 53° 100° (E) 00:07:06 145.935-145.965
TIGRISAT 02 Mar 00:02:25 00:05:27 17° 297° (WNW) 00:08:27 435.000
UNISAT 6 02 Mar 00:03:55 00:06:42 16° 298° (WNW) 00:09:27 437.425
NANOSAT C BR1 02 Mar 00:12:24 00:16:41 70° 102° (ESE) 00:20:54 145.865
POLYITAN 1 02 Mar 00:17:50 00:22:09 87° 103° (ESE) 00:26:26 437.675
BUGSAT 1 02 Mar 00:18:33 00:22:07 25° 95° (E) 00:25:39 437.445
QB50P2 02 Mar 00:21:03 00:25:21 80° 286° (WNW) 00:29:38 145.880/145.840
AIST 2D 02 Mar 00:21:03 00:24:24 39° 287° (WNW) 00:27:41 435.315
PCSat 02 Mar 00:22:21 00:27:48 73° 58° (ENE) 00:33:13 145.827
RS-15 02 Mar 00:38:37 00:50:38 52° 42° (NE) 01:02:12 29.354- 29.394
SPROUT 02 Mar 00:58:29 01:01:38 20° 267° (W) 01:04:51 437.525
Gurwin Techsat 1B 02 Mar 00:59:03 01:00:58 12° 88° (E) 01:02:51 435.225
DX 1 02 Mar 01:02:49 01:06:41 32° 263° (W) 01:10:35 434.975-435.025
UKube-1 02 Mar 01:04:10 01:08:14 42° 261° (W) 01:12:21 .
Oscar 19 02 Mar 01:10:16 01:14:37 27° 95° (E) 01:18:56 437.125/150
DUCHIFAT 1 02 Mar 01:17:57 01:21:31 26° 292° (WNW) 01:25:02 145.980
FO-29 02 Mar 01:18:55 01:23:32 18° 308° (NW) 01:27:55 435.910
ITUPSAT 1 02 Mar 01:32:19 01:36:24 28° 66° (ENE) 01:40:29 437.325
BEESAT 02 Mar 01:35:16 01:39:26 30° 67° (ENE) 01:43:37 436.000
EO-79 02 Mar 01:35:43 01:38:16 16° 297° (WNW) 01:40:48 145.935-145.965
NANOSAT C BR1 02 Mar 01:50:05 01:51:49 12° 299° (WNW) 01:53:31 145.865
BUGSAT 1 02 Mar 01:53:45 01:57:27 29° 291° (WNW) 02:01:08 437.445
POLYITAN 1 02 Mar 01:57:12 01:57:14 10° 301° (WNW) 01:57:16 437.675
PCSat 02 Mar 02:07:17 02:10:33 16° 256° (WSW) 02:13:49 145.827
AO-7 02 Mar 02:33:31 02:38:44 18° 90° (E) 02:43:53 .
Gurwin Techsat 1B 02 Mar 02:36:14 02:41:36 87° 286° (WNW) 02:46:55 435.225
KKS-1 02 Mar 02:42:12 02:44:26 14° 61° (ENE) 02:46:41 437.445
MOZHAYETS 4 02 Mar 02:46:46 02:51:17 55° 73° (ENE) 02:55:51
Oscar 19 02 Mar 02:49:18 02:54:01 38° 292° (WNW) 02:58:42 437.125/150
RS-15 02 Mar 02:51:35 03:03:25 58° 248° (WSW) 03:14:45 29.354- 29.394
STARS 02 Mar 03:03:39 03:03:53 10° 58° (ENE) 03:04:07 437.465
ITUPSAT 1 02 Mar 03:09:46 03:14:06 33° 263° (W) 03:18:29 437.325
BEESAT 02 Mar 03:12:56 03:17:09 30° 264° (W) 03:21:23 436.000
AO-85 02 Mar 03:22:11 03:26:43 69° 121° (ESE) 03:30:55 145.980
ITAMSAT 1 02 Mar 03:34:05 03:39:17 59° 102° (ESE) 03:44:24 435.822/435.867
CUBESAT XI-V 02 Mar 04:00:20 04:04:50 51° 72° (ENE) 04:09:20 437.345
KKS-1 02 Mar 04:16:04 04:20:27 66° 258° (WSW) 04:24:53 437.445
Gurwin Techsat 1B 02 Mar 04:18:20 04:20:44 13° 303° (WNW) 04:23:08 435.225
AO-7 02 Mar 04:24:13 04:32:36 86° 109° (ESE) 04:40:53 .
MOZHAYETS 4 02 Mar 04:25:58 04:28:47 16° 269° (W) 04:31:36
SO-50 02 Mar 04:30:38 04:33:44 18° 39° (NE) 04:36:48 436.795
STARS 02 Mar 04:35:07 04:39:29 89° 103° (ESE) 04:43:55 437.465
BEESAT 3 02 Mar 04:38:03 04:41:21 27° 114° (ESE) 04:44:42 437.485
M-CUBED/EXP-1 PRIME 02 Mar 04:51:24 04:54:39 86° 244° (WSW) 04:57:58 437.505
AO-85 02 Mar 05:04:37 05:07:29 17° 319° (NW) 05:10:16 145.980
RS-15 02 Mar 05:10:21 05:12:51 11° 269° (W) 05:15:20 29.354- 29.394
ISS 02 Mar 05:14:30 05:15:36 11° 130° (SE) 05:16:43 437.550
ITAMSAT 1 02 Mar 05:14:35 05:18:16 20° 299° (WNW) 05:21:56 435.822/435.867
CUTE-I 02 Mar 05:22:45 05:24:46 12° 88° (E) 05:26:47 437.470
Tancredo 1 02 Mar 05:25:16 05:27:14 15° 132° (SE) 05:29:11 437.200
BEESAT 2 02 Mar 05:27:48 05:31:27 37° 117° (ESE) 05:35:10 435.950
LilacSat-2 02 Mar 05:32:54 05:34:40 13° 91° (E) 05:36:24 437.200
CUBESAT XI-V 02 Mar 05:39:31 05:42:30 17° 269° (W) 05:45:29 437.345
KAITUO 1B 02 Mar 06:07:11 06:10:19 25° 95° (E) 06:13:25 145.475/437.950
SO-50 02 Mar 06:10:13 06:14:43 74° 237° (WSW) 06:19:10 436.795
BEESAT 3 02 Mar 06:15:23 06:18:52 30° 312° (NW) 06:22:24 437.485
DOVE 4 02 Mar 06:16:51 06:21:36 52° 100° (E) 06:26:35 437.250
AO-7 02 Mar 06:18:10 06:24:24 24° 309° (NW) 06:30:36 .
XW-2F 02 Mar 06:20:39 06:24:19 43° 99° (E) 06:27:54 145.980 - 146.000
XW-2D 02 Mar 06:28:36 06:32:23 59° 100° (E) 06:36:07 145.860 - 145.880
XW-2B 02 Mar 06:33:46 06:37:35 67° 102° (ESE) 06:41:20 145.730 - 145.750
STRAND 1 02 Mar 06:34:32 06:39:33 56° 72° (ENE) 06:44:37 437.568
NUDT-PHONESAT 02 Mar 06:35:02 06:38:45 55° 100° (E) 06:42:24 437.300
O/OREOS (USA 219) 02 Mar 06:41:49 06:45:24 22° 55° (NE) 06:48:59 437.305
XW-2C 02 Mar 06:42:39 06:46:29 88° 103° (ESE) 06:50:16 145.795 - 145.815
ISS 02 Mar 06:48:18 06:51:36 89° 164° (SSE) 06:54:56 437.550
Tancredo 1 02 Mar 06:59:53 07:03:08 69° 329° (NNW) 07:06:23 437.200
CUTE-I 02 Mar 07:00:06 07:05:31 87° 283° (WNW) 07:10:53 437.470
HO-68 02 Mar 07:02:50 07:08:36 26° 93° (E) 07:14:19 435.675
SEEDS 02 Mar 07:05:03 07:06:01 11° 89° (E) 07:06:59 437.485
LilacSat-2 02 Mar 07:05:31 07:09:13 46° 287° (WNW) 07:12:51 437.200
BEESAT 2 02 Mar 07:06:05 07:09:20 23° 315° (NW) 07:12:37 435.950
CUBEBUG 2 02 Mar 07:31:13 07:34:22 17° 90° (E) 07:37:28 437.445
KAITUO 1B 02 Mar 07:41:15 07:44:15 23° 292° (WNW) 07:47:12 145.475/437.950
CUTE 1.7 + AOD 2 02 Mar 07:51:12 07:55:21 55° 100° (E) 07:59:28 437.475
XW-2A 02 Mar 07:55:12 07:58:40 79° 284° (WNW) 08:02:07 145.665 - 145.685
DOVE 4 02 Mar 07:55:28 07:58:57 20° 295° (WNW) 08:02:33 437.250
XW-2F 02 Mar 07:56:01 07:58:05 14° 295° (WNW) 08:00:09 145.980 - 146.000
UWE-3 02 Mar 07:56:51 08:00:13 20° 92° (E) 08:03:31 435.000/436.395/437.385
FO-29 02 Mar 08:03:53 08:07:03 13° 48° (NE) 08:10:16 435.910
XW-2D 02 Mar 08:04:53 08:06:04 11° 297° (WNW) 08:07:15 145.860 - 145.880
ZACube-1 02 Mar 08:06:09 08:08:32 14° 89° (E) 08:10:53 437.345
XW-2B 02 Mar 08:10:48 08:11:13 10° 298° (WNW) 08:11:37 145.730 - 145.750
NUDT-PHONESAT 02 Mar 08:10:54 08:12:11 11° 297° (WNW) 08:13:28 437.300
AAUSAT CUBESAT 2 02 Mar 08:11:09 08:14:45 29° 96° (E) 08:18:21 437.432
STRAND 1 02 Mar 08:15:34 08:19:05 18° 268° (W) 08:22:38 437.568
O/OREOS (USA 219) 02 Mar 08:20:39 08:25:00 43° 253° (WSW) 08:29:20 437.305
ISS 02 Mar 08:25:41 08:28:26 23° 345° (NNW) 08:31:11 437.550
YUBILEINY 02 Mar 08:35:35 08:41:20 20° 77° (ENE) 08:47:04 435.215
Tancredo 1 02 Mar 08:37:16 08:39:49 21° 348° (NNW) 08:42:22 437.200
SEEDS 02 Mar 08:38:00 08:42:09 66° 285° (WNW) 08:46:15 437.485
CUTE-I 02 Mar 08:42:14 08:44:44 13° 303° (WNW) 08:47:15 437.470
HO-68 02 Mar 08:49:44 08:56:46 63° 292° (WNW) 09:03:48 435.675
Oscar 11 02 Mar 08:49:44 08:53:35 31° 96° (E) 08:57:24 .
AO-73 02 Mar 08:49:56 08:54:07 37° 97° (E) 08:58:12 145.935
DELFI C3 02 Mar 08:57:20 08:57:52 10° 89° (E) 08:58:24 145.870
CUBEBUG 2 02 Mar 09:06:39 09:11:17 52° 288° (WNW) 09:15:49 437.445
PRISM 02 Mar 09:09:27 09:13:31 82° 256° (WSW) 09:17:37 437.425
TIGRISAT 02 Mar 09:23:38 09:28:04 53° 72° (ENE) 09:32:37 435.000
UNISAT 6 02 Mar 09:25:02 09:29:31 59° 73° (ENE) 09:34:06 437.425
CUTE 1.7 + AOD 2 02 Mar 09:28:28 09:30:43 14° 297° (WNW) 09:32:58 437.475
UWE-3 02 Mar 09:32:27 09:36:52 44° 289° (WNW) 09:41:11 435.000/436.395/437.385
ZACube-1 02 Mar 09:40:44 09:45:13 58° 286° (WNW) 09:49:33 437.345
FO-29 02 Mar 09:43:09 09:50:19 56° 69° (ENE) 09:57:58 435.910
AAUSAT CUBESAT 2 02 Mar 09:46:49 09:50:06 23° 292° (WNW) 09:53:22 437.432
ISS 02 Mar 10:03:19 10:05:44 18° 5° (N) 10:08:09 437.550
Tancredo 1 02 Mar 10:14:29 10:16:54 19° 8° (N) 10:19:18 437.200
AO-85 02 Mar 10:14:33 10:15:26 11° 35° (NE) 10:16:18 145.980
Oscar 11 02 Mar 10:26:05 10:29:35 25° 293° (WNW) 10:33:05 .
AO-73 02 Mar 10:26:36 10:30:07 23° 294° (WNW) 10:33:35 145.935
YUBILEINY 02 Mar 10:28:04 10:36:54 87° 277° (W) 10:45:45 435.215
DELFI C3 02 Mar 10:29:10 10:33:02 61° 286° (WNW) 10:36:55 145.870
DUCHIFAT 1 02 Mar 10:34:55 10:38:20 24° 67° (ENE) 10:41:47 145.980
HO-68 02 Mar 10:39:58 10:43:07 13° 311° (NW) 10:46:17 435.675
EO-79 02 Mar 10:51:42 10:55:42 43° 71° (ENE) 10:59:46 145.935-145.965
AIST 2D 02 Mar 10:55:41 10:59:15 80° 77° (ENE) 11:02:50 435.315
TIGRISAT 02 Mar 11:02:14 11:05:05 16° 270° (W) 11:07:59 435.000
UNISAT 6 02 Mar 11:04:05 11:06:37 15° 270° (W) 11:09:11 437.425
LO-87 02 Mar 11:04:27 11:07:52 38° 98° (E) 11:11:16 145.935 - 145.965
NANOSAT C BR1 02 Mar 11:04:55 11:09:03 56° 73° (ENE) 11:13:14 145.865
BUGSAT 1 02 Mar 11:09:28 11:12:29 20° 65° (ENE) 11:15:32 437.445
POLYITAN 1 02 Mar 11:10:46 11:15:00 72° 75° (ENE) 11:19:17 437.675
QB50P2 02 Mar 11:13:59 11:18:14 84° 76° (ENE) 11:22:32 145.880/145.840
FO-29 02 Mar 11:29:04 11:35:35 33° 268° (W) 11:42:32 435.910
ISS 02 Mar 11:39:43 11:42:52 39° 25° (NNE) 11:46:00 437.550
ESTCUBE 1 02 Mar 11:39:46 11:44:08 49° 99° (E) 11:48:28 437.505/2401.250
VELOX 1 02 Mar 11:41:31 11:44:25 17° 92° (E) 11:47:19 145.980
Tancredo 1 02 Mar 11:50:33 11:53:42 48° 27° (NNE) 11:56:51 437.200
AO-85 02 Mar 11:52:39 11:56:33 72° 55° (NE) 12:00:31 145.980
DUCHIFAT 1 02 Mar 12:10:09 12:13:53 30° 264° (W) 12:17:39 145.980
Gurwin Techsat 1B 02 Mar 12:19:58 12:24:02 23° 63° (ENE) 12:28:06 435.225
EO-79 02 Mar 12:28:54 12:31:41 17° 268° (W) 12:34:29 145.935-145.965
